When you browse on this site, cookies collect data to enhance your experience and personalize the content and advertising you see.
Visit our Privacy Policy to learn more. By continuing to use the site, you agree to this use of cookies and data.
  • In Austria
  • List of Countries
  • For 7 days
  • Water Temperature
  • Satellite Maps
  • Weather Map
  • News
  • Weather Widgets
  • user-avatar
    Login

    Hourly Weather Stepanakert

    Today, 20 July, Saturday

    Time Temperature Precipitation Wind Pressure Humidity
    00:00 +24°C° 0 mm 2 mps 692 mmHg 64%
    01:00 +24°C° 0 mm 2 mps 692 mmHg 64%
    02:00 +23°C° 0 mm 1 mps 692 mmHg 65%
    03:00 +23°C° 0 mm 1 mps 692 mmHg 68%
    04:00 +23°C° 0 mm 1 mps 692 mmHg 68%
    05:00 +24°C° 0 mm 1 mps 693 mmHg 67%
    06:00 +25°C° 0 mm 1 mps 694 mmHg 66%
    07:00 +26°C° 0 mm 1 mps 694 mmHg 60%
    08:00 +27°C° 0 mm 2 mps 694 mmHg 55%
    09:00 +29°C° 0 mm 3 mps 694 mmHg 48%
    10:00 +30°C° 0 mm 3 mps 694 mmHg 44%
    11:00 +31°C° 0 mm 3 mps 695 mmHg 41%
    12:00 +33°C° 0 mm 4 mps 695 mmHg 38%
    13:00 +33°C° 0 mm 4 mps 694 mmHg 37%
    14:00 +34°C° 0 mm 4 mps 694 mmHg 36%
    15:00 +34°C° 0 mm 4 mps 693 mmHg 35%
    16:00 +33°C° 0 mm 4 mps 693 mmHg 38%
    17:00 +32°C° 0 mm 4 mps 693 mmHg 42%
    18:00 +30°C° 0 mm 4 mps 694 mmHg 45%
    19:00 +28°C° 0 mm 3 mps 694 mmHg 49%
    20:00 +26°C° 0 mm 3 mps 694 mmHg 54%
    21:00 +24°C° 0 mm 2 mps 694 mmHg 58%
    22:00 +24°C° 0 mm 2 mps 694 mmHg 58%
    23:00 +24°C° 0 mm 2 mps 694 mmHg 57%

    Tomorrow, 21 July, Sunday

    Time Temperature Precipitation Wind Pressure Humidity
    00:00 +23°C° 0 mm 2 mps 694 mmHg 56%
    01:00 +23°C° 0 mm 2 mps 694 mmHg 56%
    02:00 +23°C° 0 mm 2 mps 694 mmHg 55%
    03:00 +23°C° 0 mm 2 mps 694 mmHg 55%
    04:00 +24°C° 0 mm 2 mps 694 mmHg 55%
    05:00 +24°C° 0 mm 2 mps 694 mmHg 56%
    06:00 +25°C° 0 mm 2 mps 695 mmHg 56%
    07:00 +26°C° 0 mm 2 mps 695 mmHg 51%
    08:00 +28°C° 0 mm 2 mps 695 mmHg 46%
    09:00 +30°C° 0 mm 3 mps 695 mmHg 41%
    10:00 +31°C° 0 mm 3 mps 695 mmHg 38%
    11:00 +33°C° 0 mm 3 mps 695 mmHg 36%
    12:00 +34°C° 0 mm 3 mps 694 mmHg 34%
    13:00 +34°C° 0 mm 3 mps 694 mmHg 33%
    14:00 +35°C° 0 mm 3 mps 693 mmHg 32%
    15:00 +35°C° 0 mm 3 mps 693 mmHg 31%
    16:00 +35°C° 0 mm 3 mps 692 mmHg 34%
    17:00 +34°C° 0 mm 2 mps 692 mmHg 37%
    18:00 +32°C° 0 mm 2 mps 692 mmHg 41%
    19:00 +30°C° 0 mm 2 mps 692 mmHg 45%
    20:00 +28°C° 0 mm 2 mps 692 mmHg 50%
    21:00 +25°C° 0 mm 1 mps 692 mmHg 54%
    22:00 +25°C° 0 mm 1 mps 692 mmHg 54%
    23:00 +25°C° 0 mm 2 mps 692 mmHg 54%

    Day after tomorrow, 22 July, Monday

    Time Temperature Precipitation Wind Pressure Humidity
    00:00 +25°C° 0 mm 2 mps 692 mmHg 54%
    01:00 +25°C° 0 mm 2 mps 691 mmHg 53%
    02:00 +25°C° 0 mm 1 mps 691 mmHg 53%
    03:00 +25°C° 0 mm 1 mps 691 mmHg 53%
    04:00 +25°C° 0 mm 1 mps 691 mmHg 53%
    05:00 +26°C° 0 mm 1 mps 691 mmHg 53%
    06:00 +26°C° 0 mm 1 mps 691 mmHg 53%
    07:00 +28°C° 0 mm 1 mps 691 mmHg 49%
    08:00 +30°C° 0 mm 1 mps 691 mmHg 45%
    09:00 +31°C° 0 mm 2 mps 691 mmHg 40%
    10:00 +32°C° 0 mm 2 mps 691 mmHg 39%
    11:00 +34°C° 0 mm 3 mps 691 mmHg 38%
    12:00 +35°C° 0 mm 3 mps 691 mmHg 37%
    13:00 +35°C° 0 mm 3 mps 690 mmHg 37%
    14:00 +36°C° 0 mm 3 mps 690 mmHg 37%
    15:00 +36°C° 0 mm 3 mps 690 mmHg 37%
    16:00 +35°C° 0 mm 3 mps 689 mmHg 41%
    17:00 +34°C° 0 mm 3 mps 689 mmHg 44%
    18:00 +31°C° 0 mm 3 mps 689 mmHg 48%
    19:00 +29°C° 0 mm 2 mps 689 mmHg 55%
    20:00 +27°C° 0 mm 2 mps 689 mmHg 62%
    21:00 +25°C° 0 mm 1 mps 689 mmHg 69%
    22:00 +25°C° 0 mm 1 mps 689 mmHg 70%
    23:00 +24°C° 0 mm 1 mps 689 mmHg 71%

    23 July, Tuesday

    Time Temperature Precipitation Wind Pressure Humidity
    00:00 +24°C° 0 mm 1 mps 689 mmHg 72%
    01:00 +24°C° 0 mm 1 mps 689 mmHg 72%
    02:00 +23°C° 0 mm 1 mps 689 mmHg 73%
    03:00 +23°C° 0 mm 1 mps 689 mmHg 73%
    04:00 +23°C° 0 mm 1 mps 690 mmHg 70%
    05:00 +24°C° 0 mm 1 mps 690 mmHg 68%
    06:00 +24°C° 0 mm 1 mps 691 mmHg 66%
    07:00 +26°C° 0 mm 2 mps 691 mmHg 60%
    08:00 +27°C° 0 mm 2 mps 691 mmHg 54%
    09:00 +29°C° 0 mm 2 mps 691 mmHg 47%
    10:00 +30°C° 0 mm 3 mps 691 mmHg 45%
    11:00 +31°C° 0 mm 3 mps 691 mmHg 42%
    12:00 +33°C° 0 mm 3 mps 690 mmHg 40%
    13:00 +34°C° 0 mm 4 mps 690 mmHg 40%
    14:00 +34°C° 0 mm 4 mps 689 mmHg 40%
    15:00 +34°C° 0 mm 4 mps 689 mmHg 39%
    16:00 +33°C° 0 mm 4 mps 689 mmHg 43%
    17:00 +32°C° 0 mm 4 mps 689 mmHg 47%
    18:00 +29°C° 0 mm 3 mps 689 mmHg 51%
    19:00 +28°C° 0 mm 3 mps 689 mmHg 56%
    20:00 +26°C° 0 mm 2 mps 689 mmHg 60%
    21:00 +25°C° 0 mm 1 mps 689 mmHg 65%
    22:00 +24°C° 0 mm 1 mps 689 mmHg 66%
    23:00 +24°C° 0 mm 1 mps 689 mmHg 67%

    24 July, Wednesday

    Time Temperature Precipitation Wind Pressure Humidity
    00:00 +23°C° 0 mm 1 mps 689 mmHg 67%
    01:00 +23°C° 0 mm 1 mps 689 mmHg 67%
    02:00 +23°C° 0 mm 1 mps 689 mmHg 67%
    03:00 +23°C° 0 mm 1 mps 689 mmHg 67%
    04:00 +23°C° 0 mm 1 mps 689 mmHg 66%
    05:00 +23°C° 0 mm 1 mps 689 mmHg 65%
    06:00 +24°C° 0 mm 1 mps 690 mmHg 64%
    07:00 +26°C° 0 mm 1 mps 690 mmHg 57%
    08:00 +27°C° 0 mm 2 mps 690 mmHg 50%
    09:00 +29°C° 0 mm 2 mps 691 mmHg 43%
    10:00 +30°C° 0 mm 2 mps 690 mmHg 41%
    11:00 +32°C° 0 mm 2 mps 690 mmHg 39%
    12:00 +34°C° 0 mm 3 mps 690 mmHg 37%
    13:00 +34°C° 0 mm 3 mps 689 mmHg 36%
    14:00 +35°C° 0 mm 3 mps 689 mmHg 35%
    15:00 +36°C° 0 mm 3 mps 689 mmHg 35%
    16:00 +35°C° 0 mm 2 mps 689 mmHg 37%
    17:00 +34°C° 0 mm 2 mps 689 mmHg 40%
    18:00 +32°C° 0 mm 2 mps 688 mmHg 43%
    19:00 +30°C° 0 mm 2 mps 689 mmHg 47%
    20:00 +28°C° 0 mm 1 mps 689 mmHg 51%
    21:00 +26°C° 0 mm 1 mps 689 mmHg 54%
    22:00 +26°C° 0 mm 1 mps 689 mmHg 55%
    23:00 +25°C° 0 mm 1 mps 689 mmHg 55%

    25 July, Thursday

    Time Temperature Precipitation Wind Pressure Humidity
    00:00 +25°C° 0 mm 1 mps 689 mmHg 55%
    01:00 +25°C° 0 mm 1 mps 689 mmHg 56%
    02:00 +24°C° 0 mm 1 mps 689 mmHg 56%
    03:00 +24°C° 0 mm 1 mps 689 mmHg 56%
    04:00 +25°C° 0 mm 1 mps 689 mmHg 56%
    05:00 +25°C° 0 mm 1 mps 689 mmHg 56%
    06:00 +26°C° 0 mm 1 mps 689 mmHg 55%
    07:00 +28°C° 0 mm 1 mps 689 mmHg 51%
    08:00 +29°C° 0 mm 2 mps 690 mmHg 46%
    09:00 +31°C° 0 mm 2 mps 690 mmHg 41%
    10:00 +32°C° 0 mm 2 mps 690 mmHg 39%
    11:00 +34°C° 0 mm 3 mps 689 mmHg 37%
    12:00 +35°C° 0 mm 3 mps 689 mmHg 35%
    13:00 +36°C° 0 mm 3 mps 689 mmHg 34%
    14:00 +36°C° 0 mm 3 mps 688 mmHg 33%
    15:00 +37°C° 0 mm 3 mps 688 mmHg 32%
    16:00 +36°C° 0 mm 3 mps 687 mmHg 34%
    17:00 +35°C° 0 mm 3 mps 687 mmHg 36%
    18:00 +33°C° 0 mm 3 mps 687 mmHg 39%
    19:00 +31°C° 0 mm 2 mps 687 mmHg 42%
    20:00 +29°C° 0 mm 2 mps 687 mmHg 44%
    21:00 +27°C° 0 mm 1 mps 687 mmHg 47%
    22:00 +26°C° 0 mm 1 mps 687 mmHg 48%
    23:00 +26°C° 0 mm 1 mps 687 mmHg 50%
    Show more